ANA1655 RJOO-RJSK

Flight info

Callsign ANA1655
Flight time 1h 1m
Altitude 31000
Route MINAC YOKKA KCC Y312 YAYOI
Aircraft B738/M-SDE2E3FGHIRWXY/LB1

Departure

Time 2026-04-21 17:29
Airport Osaka Itami International Airport (RJOO)

Arrival

Time 2026-04-21 18:30
Airport Akita Airport (RJSK)
Time Latitude Longitude Altitude Speed Heading
2026-04-21 17:05 34.79023 135.44031 61 ft 0 kts 25°
2026-04-21 17:19 34.79007 135.44022 49 ft 4 kts 25°
2026-04-21 17:19 34.78982 135.44008 47 ft 4 kts 25°
2026-04-21 17:19 34.78963 135.43996 46 ft 4 kts 27°
2026-04-21 17:20 34.78940 135.43979 49 ft 4 kts 39°
2026-04-21 17:20 34.78921 135.43956 48 ft 4 kts 58°
2026-04-21 17:20 34.78915 135.43943 48 ft 0 kts 66°
2026-04-21 17:22 34.78915 135.43945 48 ft 0 kts 78°
2026-04-21 17:23 34.78911 135.43948 46 ft 1 kts 132°
2026-04-21 17:23 34.78901 135.43940 48 ft 4 kts 232°
2026-04-21 17:23 34.78877 135.43888 48 ft 11 kts 218°
2026-04-21 17:23 34.78798 135.43934 44 ft 16 kts 134°
2026-04-21 17:24 34.78706 135.44047 45 ft 21 kts 137°
2026-04-21 17:24 34.78589 135.44184 47 ft 25 kts 135°
2026-04-21 17:24 34.78452 135.44326 47 ft 21 kts 159°
2026-04-21 17:24 34.78354 135.44335 43 ft 16 kts 181°
2026-04-21 17:25 34.78238 135.44336 44 ft 17 kts 179°
2026-04-21 17:25 34.78136 135.44383 47 ft 16 kts 136°
2026-04-21 17:25 34.78057 135.44481 47 ft 16 kts 135°
2026-04-21 17:25 34.77981 135.44574 49 ft 15 kts 136°
2026-04-21 17:26 34.77903 135.44667 48 ft 16 kts 135°
2026-04-21 17:26 34.77818 135.44771 49 ft 19 kts 135°
2026-04-21 17:26 34.77718 135.44891 45 ft 21 kts 136°
2026-04-21 17:26 34.77608 135.45026 49 ft 24 kts 136°
2026-04-21 17:27 34.77485 135.45172 46 ft 25 kts 135°
2026-04-21 17:27 34.77397 135.45273 46 ft 14 kts 146°
2026-04-21 17:27 34.77299 135.45294 49 ft 16 kts 193°
2026-04-21 17:27 34.77245 135.45216 50 ft 10 kts 241°
2026-04-21 17:28 34.77226 135.45171 50 ft 3 kts 288°
2026-04-21 17:28 34.77250 135.45144 48 ft 6 kts 317°
2026-04-21 17:28 34.77317 135.45064 47 ft 35 kts 315°
2026-04-21 17:28 34.77663 135.44646 45 ft 103 kts 315°
2026-04-21 17:29 34.78312 135.43865 64 ft 155 kts 316°
2026-04-21 17:29 34.79093 135.42919 666 ft 156 kts 315°
2026-04-21 17:29 34.79745 135.41832 1218 ft 170 kts 286°
2026-04-21 17:29 34.79785 135.40372 1825 ft 179 kts 262°
2026-04-21 17:30 34.79416 135.38838 2243 ft 203 kts 244°
2026-04-21 17:30 34.78495 135.37444 2561 ft 223 kts 215°
2026-04-21 17:30 34.76983 135.36766 2725 ft 250 kts 181°
2026-04-21 17:30 34.75262 135.37278 3225 ft 261 kts 146°
2026-04-21 17:31 34.74009 135.38872 3901 ft 268 kts 117°
2026-04-21 17:31 34.73579 135.41072 4665 ft 270 kts 87°
2026-04-21 17:31 34.74057 135.43237 5393 ft 274 kts 59°
2026-04-21 17:31 34.74987 135.45251 6258 ft 272 kts 61°
2026-04-21 17:32 34.75571 135.46655 6678 ft 279 kts 63°
2026-04-21 17:32 34.76731 135.49513 7500 ft 289 kts 62°
2026-04-21 17:32 34.77637 135.51712 8220 ft 293 kts 62°
2026-04-21 17:32 34.78566 135.53938 8909 ft 298 kts 62°
2026-04-21 17:33 34.79274 135.56325 9558 ft 305 kts 84°
2026-04-21 17:33 34.79256 135.58915 10260 ft 309 kts 94°
2026-04-21 17:33 34.79123 135.61596 10534 ft 329 kts 94°
2026-04-21 17:33 34.78985 135.64472 10695 ft 351 kts 94°
2026-04-21 17:34 34.78852 135.67525 10867 ft 372 kts 93°
2026-04-21 17:34 34.78719 135.70750 11077 ft 389 kts 93°
2026-04-21 17:34 34.78923 135.74018 11485 ft 398 kts 73°
2026-04-21 17:34 34.79553 135.76156 11909 ft 399 kts 67°
2026-04-21 17:35 34.80924 135.80323 12738 ft 404 kts 67°
2026-04-21 17:35 34.81965 135.83536 13313 ft 410 kts 68°
2026-04-21 17:35 34.83000 135.86789 13902 ft 415 kts 68°
2026-04-21 17:35 34.84034 135.90097 14452 ft 420 kts 68°
2026-04-21 17:36 34.84721 135.92318 14792 ft 424 kts 68°
2026-04-21 17:36 34.85762 135.95699 15335 ft 430 kts 68°
2026-04-21 17:36 34.86816 135.99137 15861 ft 436 kts 68°
2026-04-21 17:36 34.87881 136.02615 16390 ft 441 kts 68°
2026-04-21 17:37 34.88960 136.06140 16885 ft 446 kts 68°
2026-04-21 17:37 34.90050 136.09706 17397 ft 452 kts 68°
2026-04-21 17:37 34.91155 136.13319 17882 ft 457 kts 68°
2026-04-21 17:37 34.92268 136.16967 18373 ft 462 kts 68°
2026-04-21 17:38 34.93395 136.20666 18799 ft 467 kts 68°
2026-04-21 17:38 34.94529 136.24391 19246 ft 470 kts 67°
2026-04-21 17:38 34.95667 136.28138 19694 ft 474 kts 67°
2026-04-21 17:38 34.96816 136.31924 20138 ft 478 kts 67°
2026-04-21 17:39 34.97971 136.35738 20577 ft 481 kts 67°
2026-04-21 17:39 34.99133 136.39584 20955 ft 486 kts 67°
2026-04-21 17:39 35.00294 136.43415 21301 ft 490 kts 67°
2026-04-21 17:39 35.01592 136.47271 21647 ft 490 kts 57°
2026-04-21 17:40 35.03409 136.50767 22068 ft 487 kts 50°
2026-04-21 17:40 35.05379 136.54149 22477 ft 489 kts 49°
2026-04-21 17:40 35.07384 136.57520 22871 ft 493 kts 48°
2026-04-21 17:40 35.09396 136.60940 23170 ft 498 kts 49°
2026-04-21 17:41 35.11401 136.64418 23529 ft 502 kts 49°
2026-04-21 17:41 35.13393 136.67935 23861 ft 505 kts 50°
2026-04-21 17:41 35.15383 136.71487 24142 ft 508 kts 50°
2026-04-21 17:41 35.17354 136.75023 24410 ft 511 kts 50°
2026-04-21 17:42 35.19362 136.78628 24684 ft 515 kts 50°
2026-04-21 17:42 35.21387 136.82262 24931 ft 518 kts 50°
2026-04-21 17:42 35.23422 136.85913 25199 ft 521 kts 50°
2026-04-21 17:42 35.25471 136.89590 25475 ft 524 kts 50°
2026-04-21 17:43 35.27530 136.93288 25738 ft 527 kts 50°
2026-04-21 17:43 35.29600 136.97002 25995 ft 530 kts 50°
2026-04-21 17:43 35.31683 137.00738 26246 ft 533 kts 50°
2026-04-21 17:43 35.33822 137.04419 26754 ft 524 kts 44°
2026-04-21 17:44 35.36309 137.07545 27557 ft 501 kts 32°
2026-04-21 17:44 35.39051 137.10062 28155 ft 486 kts 22°
2026-04-21 17:44 35.41972 137.12155 28433 ft 488 kts 20°
2026-04-21 17:44 35.44933 137.14239 28620 ft 493 kts 20°
2026-04-21 17:45 35.47921 137.16354 28880 ft 497 kts 20°
2026-04-21 17:45 35.50911 137.18502 29235 ft 500 kts 21°
2026-04-21 17:45 35.53901 137.20680 29657 ft 500 kts 21°
2026-04-21 17:45 35.56895 137.22868 30035 ft 501 kts 21°
2026-04-21 17:46 35.59880 137.25076 30442 ft 500 kts 20°
2026-04-21 17:46 35.62853 137.27276 30889 ft 497 kts 20°
2026-04-21 17:46 35.65815 137.29467 31131 ft 496 kts 20°
2026-04-21 17:46 35.68777 137.31646 31157 ft 496 kts 20°
2026-04-21 17:47 35.74697 137.36028 31160 ft 494 kts 20°
2026-04-21 17:47 35.80601 137.40432 31171 ft 498 kts 20°
2026-04-21 17:48 35.86586 137.44585 31171 ft 495 kts 20°
2026-04-21 17:48 35.92477 137.49044 31176 ft 499 kts 21°
2026-04-21 17:49 35.98324 137.53572 31153 ft 498 kts 20°
2026-04-21 17:49 36.04241 137.57998 31153 ft 497 kts 20°
2026-04-21 17:50 36.10178 137.62426 31167 ft 497 kts 19°
2026-04-21 17:50 36.16099 137.66813 31136 ft 495 kts 19°
2026-04-21 17:51 36.21990 137.71019 31146 ft 480 kts 13°
2026-04-21 17:51 36.24953 137.73068 31116 ft 496 kts 22°
2026-04-21 17:51 36.27819 137.75433 31093 ft 492 kts 20°
2026-04-21 17:52 36.33686 137.79696 31139 ft 496 kts 21°
2026-04-21 17:52 36.39464 137.84618 31120 ft 503 kts 20°
2026-04-21 17:53 36.45472 137.88961 31127 ft 500 kts 18°
2026-04-21 17:53 36.51444 137.93480 31120 ft 502 kts 21°
2026-04-21 17:54 36.57238 137.98211 31114 ft 496 kts 21°
2026-04-21 17:54 36.63040 138.02907 31145 ft 498 kts 20°
2026-04-21 17:55 36.68881 138.07590 31118 ft 500 kts 21°
2026-04-21 17:55 36.74697 138.12271 31122 ft 501 kts 21°
2026-04-21 17:56 36.80542 138.17006 31117 ft 501 kts 21°
2026-04-21 17:56 36.86378 138.21753 31120 ft 501 kts 21°
2026-04-21 17:57 36.92220 138.26500 31132 ft 501 kts 20°
2026-04-21 17:57 36.98049 138.31284 31102 ft 500 kts 20°
2026-04-21 17:58 37.03872 138.35994 31091 ft 498 kts 20°
2026-04-21 17:58 37.09677 138.40722 31097 ft 497 kts 20°
2026-04-21 17:59 37.15438 138.45377 31098 ft 492 kts 18°
2026-04-21 17:59 37.21202 138.50106 31121 ft 495 kts 21°
2026-04-21 18:00 37.26939 138.54886 31093 ft 494 kts 19°
2026-04-21 18:00 37.32702 138.59556 31092 ft 494 kts 19°
2026-04-21 18:01 37.38492 138.64260 31090 ft 496 kts 19°
2026-04-21 18:01 37.44288 138.69001 31073 ft 497 kts 19°
2026-04-21 18:02 37.50094 138.73733 31087 ft 497 kts 19°
2026-04-21 18:02 37.55858 138.78472 31075 ft 497 kts 20°
2026-04-21 18:03 37.61645 138.83238 31057 ft 496 kts 19°
2026-04-21 18:03 37.67423 138.88000 31065 ft 495 kts 19°
2026-04-21 18:04 37.73191 138.92759 31053 ft 494 kts 19°
2026-04-21 18:04 37.78933 138.97505 31088 ft 493 kts 19°
2026-04-21 18:05 37.84669 139.02254 31054 ft 492 kts 19°
2026-04-21 18:05 37.90360 139.06976 31050 ft 492 kts 19°
2026-04-21 18:06 37.96098 139.11717 30836 ft 489 kts 16°
2026-04-21 18:06 37.99027 139.13776 30365 ft 475 kts 12°
2026-04-21 18:06 38.01958 139.15638 29903 ft 468 kts 10°
2026-04-21 18:07 38.04875 139.17419 29400 ft 462 kts 10°
2026-04-21 18:07 38.07763 139.19172 28944 ft 457 kts 10°
2026-04-21 18:07 38.10616 139.20920 28502 ft 453 kts 10°
2026-04-21 18:07 38.13438 139.22672 28038 ft 449 kts 11°
2026-04-21 18:08 38.16227 139.24421 27589 ft 445 kts 11°
2026-04-21 18:08 38.18992 139.26167 27150 ft 441 kts 11°
2026-04-21 18:08 38.21730 139.27903 26712 ft 437 kts 11°
2026-04-21 18:08 38.24402 139.29601 26290 ft 434 kts 12°
2026-04-21 18:09 38.27124 139.31332 25884 ft 430 kts 11°
2026-04-21 18:09 38.29786 139.33027 25454 ft 427 kts 12°
2026-04-21 18:09 38.31543 139.34144 25170 ft 425 kts 12°
2026-04-21 18:09 38.35036 139.36366 24590 ft 422 kts 12°
2026-04-21 18:10 38.37654 139.38035 24179 ft 419 kts 12°
2026-04-21 18:10 38.40260 139.39696 23740 ft 417 kts 12°
2026-04-21 18:10 38.42849 139.41349 23281 ft 414 kts 12°
2026-04-21 18:10 38.45414 139.42990 22828 ft 411 kts 12°
2026-04-21 18:11 38.47964 139.44622 22379 ft 407 kts 12°
2026-04-21 18:11 38.50484 139.46236 21953 ft 403 kts 13°
2026-04-21 18:11 38.52979 139.47834 21525 ft 399 kts 13°
2026-04-21 18:11 38.55450 139.49419 21124 ft 396 kts 13°
2026-04-21 18:12 38.57900 139.50990 20721 ft 392 kts 13°
2026-04-21 18:12 38.60325 139.52546 20341 ft 389 kts 13°
2026-04-21 18:12 38.62737 139.54094 19938 ft 386 kts 14°
2026-04-21 18:12 38.65130 139.55631 19535 ft 383 kts 14°
2026-04-21 18:13 38.67477 139.57141 19145 ft 381 kts 14°
2026-04-21 18:13 38.69865 139.58678 18749 ft 378 kts 15°
2026-04-21 18:13 38.72193 139.60183 18525 ft 371 kts 15°
2026-04-21 18:13 38.74453 139.61645 18145 ft 368 kts 15°
2026-04-21 18:14 38.78997 139.64580 17350 ft 363 kts 16°
2026-04-21 18:14 38.81244 139.66032 16946 ft 360 kts 16°
2026-04-21 18:14 38.83474 139.67475 16542 ft 358 kts 17°
2026-04-21 18:15 38.85692 139.68911 16159 ft 355 kts 17°
2026-04-21 18:15 38.87893 139.70337 15777 ft 353 kts 17°
2026-04-21 18:15 38.90077 139.71754 15400 ft 351 kts 18°
2026-04-21 18:15 38.92250 139.73164 15024 ft 349 kts 18°
2026-04-21 18:16 38.94408 139.74566 14673 ft 347 kts 18°
2026-04-21 18:16 38.96553 139.75960 14290 ft 345 kts 19°
2026-04-21 18:16 38.98689 139.77349 13911 ft 343 kts 19°
2026-04-21 18:16 39.00817 139.78734 13502 ft 342 kts 19°
2026-04-21 18:17 39.02932 139.80112 13092 ft 340 kts 19°
2026-04-21 18:17 39.05034 139.81482 12706 ft 338 kts 19°
2026-04-21 18:17 39.07123 139.82846 12331 ft 335 kts 19°
2026-04-21 18:17 39.09184 139.84205 12056 ft 330 kts 20°
2026-04-21 18:18 39.11217 139.85553 11722 ft 327 kts 19°
2026-04-21 18:18 39.13233 139.86890 11365 ft 325 kts 20°
2026-04-21 18:18 39.15215 139.88205 11012 ft 324 kts 20°
2026-04-21 18:18 39.17215 139.89532 10665 ft 322 kts 20°
2026-04-21 18:19 39.19180 139.90840 10518 ft 313 kts 20°
2026-04-21 18:19 39.21089 139.92110 10381 ft 305 kts 20°
2026-04-21 18:19 39.22957 139.93353 10241 ft 298 kts 19°
2026-04-21 18:19 39.24777 139.94563 10112 ft 291 kts 19°
2026-04-21 18:20 39.26561 139.95748 9878 ft 288 kts 19°
2026-04-21 18:20 39.28339 139.96929 9611 ft 286 kts 19°
2026-04-21 18:20 39.30103 139.98102 9321 ft 285 kts 19°
2026-04-21 18:20 39.31814 139.99427 9011 ft 294 kts 36°
2026-04-21 18:21 39.33079 140.01571 8789 ft 305 kts 53°
2026-04-21 18:21 39.34190 140.03931 8516 ft 311 kts 54°
2026-04-21 18:21 39.35308 140.06339 8230 ft 313 kts 54°
2026-04-21 18:21 39.36432 140.08756 7944 ft 312 kts 54°
2026-04-21 18:22 39.37553 140.11157 7668 ft 311 kts 54°
2026-04-21 18:22 39.38673 140.13547 7383 ft 310 kts 54°
2026-04-21 18:22 39.39412 140.15118 7220 ft 309 kts 54°
2026-04-21 18:22 39.40534 140.17492 6992 ft 308 kts 51°
2026-04-21 18:23 39.41781 140.19740 6410 ft 321 kts 53°
2026-04-21 18:23 39.43229 140.23158 6001 ft 322 kts 57°
2026-04-21 18:23 39.44348 140.25675 5632 ft 323 kts 56°
2026-04-21 18:23 39.45491 140.28165 5352 ft 319 kts 54°
2026-04-21 18:24 39.46290 140.29742 5428 ft 310 kts 48°
2026-04-21 18:24 39.47614 140.31997 5082 ft 318 kts 57°
2026-04-21 18:24 39.48602 140.34502 4975 ft 312 kts 59°
2026-04-21 18:24 39.49630 140.37002 4644 ft 313 kts 57°
2026-04-21 18:25 39.50839 140.39299 4372 ft 305 kts 39°
2026-04-21 18:25 39.52562 140.40653 4329 ft 277 kts 13°
2026-04-21 18:25 39.54341 140.41239 4203 ft 253 kts 358°
2026-04-21 18:25 39.56041 140.41498 4099 ft 239 kts 355°
2026-04-21 18:26 39.57632 140.41567 3971 ft 214 kts 335°
2026-04-21 18:26 39.58825 140.40819 3766 ft 182 kts 307°
2026-04-21 18:26 39.59584 140.39590 3320 ft 169 kts 279°
2026-04-21 18:26 39.59796 140.38135 2895 ft 167 kts 273°
2026-04-21 18:27 39.60099 140.36668 2777 ft 168 kts 274°
2026-04-21 18:27 39.60299 140.35223 2690 ft 155 kts 270°
2026-04-21 18:27 39.60434 140.33839 2469 ft 158 kts 268°
2026-04-21 18:27 39.60605 140.32464 2190 ft 150 kts 272°
2026-04-21 18:28 39.60770 140.31229 1965 ft 130 kts 268°
2026-04-21 18:28 39.60835 140.30087 1608 ft 125 kts 262°
2026-04-21 18:28 39.60921 140.28921 1347 ft 133 kts 270°
2026-04-21 18:28 39.61050 140.27731 1059 ft 136 kts 271°
2026-04-21 18:29 39.61143 140.26517 829 ft 137 kts 272°
2026-04-21 18:29 39.61255 140.25281 652 ft 142 kts 270°
2026-04-21 18:29 39.61375 140.23978 476 ft 146 kts 275°
2026-04-21 18:29 39.61491 140.22699 320 ft 137 kts 273°
2026-04-21 18:30 39.61586 140.21612 307 ft 99 kts 277°
2026-04-21 18:30 39.61647 140.20899 305 ft 49 kts 277°
2026-04-21 18:30 39.61677 140.20530 298 ft 25 kts 266°
2026-04-21 18:30 39.61633 140.20434 299 ft 11 kts 199°
2026-04-21 18:31 39.61555 140.20430 298 ft 11 kts 169°
2026-04-21 18:31 39.61511 140.20498 299 ft 11 kts 90°
2026-04-21 18:31 39.61511 140.20595 300 ft 11 kts 90°
2026-04-21 18:31 39.61501 140.20687 302 ft 10 kts 114°
2026-04-21 18:32 39.61436 140.20720 303 ft 10 kts 177°
2026-04-21 18:32 39.61378 140.20708 302 ft 8 kts 165°
2026-04-21 18:32 39.61356 140.20764 301 ft 8 kts 62°
2026-04-21 18:32 39.61372 140.20766 303 ft 2 kts 352°
2026-04-21 18:33 39.61385 140.20764 302 ft 0 kts 355°
2026-04-21 18:33 39.61386 140.20764 302 ft 0 kts